Tracking 28096 objects as of 29-Sep-2023
HD Live streaming from Space Station
objects crossing your sky now

STARLINK-3857

Track STARLINK-3857 now!
10-day predictions
STARLINK-3857 is classified as:


NORAD ID: 52494
Int'l Code: 2022-049AV
Perigee: 545.9 km
Apogee: 547.8 km
Inclination: 53.2 °
Period: 95.4 minutes
Semi major axis: 6917 km
RCS: Unknown
Launch date: May 6, 2022
Source: United States (US)
Launch site: AIR FORCE EASTERN TEST RANGE (AFETR)
Your satellite tracking list
Your tracking list is empty




NASA's NSSDC Master Catalog

Two Line Element Set (TLE):
1 52494U 22049AV  23271.89328261  .00005092  00000-0  33771-3 0  9995
2 52494  53.2156  97.0366 0001332  93.9338 266.1807 15.08848295 77614
Source of the keplerian elements: AFSPC